Home > Time Zones > World Clock > Weather > Ghana > Accra > Past weeks

Flag for Ghana Weather past 2 weeks in Accra, Ghana

Now
77 °F

Partly sunny.


Feels Like: 78 °F
Forecast: 76 / 83 °F
Wind: 13 mph from West

Location: Accra Airport

Current Time: Sep 16, 2014 at 8:15:51 AM

Latest Report: Sep 16, 2014 at 7:00 AM


Visibility: N/A

Pressure: 29.95 "Hg

Humidity: 89%

Dew point: 73 °F

Location of AccraLocation

Historic Weather in Accra — Graph

°F

Accra temperature yesterday

Maximum temperature yesterday: 84 °F (at 1:00 PM)
Minimum temperature yesterday: 75 °F (at 3:00 AM)
Average temperature yesterday: 79 °F

Past Weeks' High & Low Weather Summary

 TemperatureHumidityPressure
High84 °F (Sep 9, 1:00 PM)100% (Sep 12, 7:55 AM)30.04 "Hg (Sep 12, 7:55 AM)
Low70 °F (Sep 12, 7:55 AM)66% (Sep 10, 2:00 PM)29.83 "Hg (Sep 4, 5:00 PM)
Average78 °F86%29.93 "Hg
* Reported Sep 1 8:00 AM — Sep 16 7:00 AM, Accra, Weather by CustomWeather, © 2014

Note: Actual official high and low records may vary slightly from our data, if they occured in-between our weather recording intervals... More about our weather records

Advertising

Accra weather history for previous 24 hours

 ConditionsComfort  
Time TempWeatherWind HumidityBarometerVisibility
7:00 AM
Sep 16
77 °FPartly sunny.13 mph89%29.95 "HgN/A
5:56 AM77 °FPartly sunny.6 mph89%29.92 "HgN/A
4:53 AM75 °FPassing clouds.9 mph94%29.89 "HgN/A
4:00 AM75 °FPassing clouds.10 mph94%29.89 "HgN/A
3:00 AM75 °FLow clouds.7 mph94%29.92 "HgN/A
2:00 AM77 °FMostly cloudy.14 mph89%29.92 "HgN/A
1:00 AM77 °FMostly cloudy.13 mph89%29.92 "HgN/A
12:00 AM77 °FMostly cloudy.6 mph89%29.95 "HgN/A
10:54 PM
Sep 15
77 °FOvercast.12 mph89%29.95 "HgN/A
9:53 PM77 °FPassing clouds.17 mph89%29.92 "HgN/A
8:55 PM77 °FPassing clouds.14 mph89%29.92 "HgN/A
7:00 PM77 °FPassing clouds.16 mph89%29.89 "HgN/A
6:00 PM79 °FPassing clouds.18 mph84%29.89 "HgN/A
5:00 PM81 °FSunny.18 mph79%29.89 "Hg10 mi
4:00 PM82 °FPassing clouds.17 mph74%29.86 "HgN/A
3:00 PM84 °FPassing clouds.15 mph70%29.89 "HgN/A
1:58 PM84 °FPassing clouds.16 mph70%29.89 "HgN/A
1:00 PM84 °FScattered clouds.14 mph70%29.92 "HgN/A
12:00 PM82 °FPartly sunny.12 mph79%29.95 "HgN/A
11:00 AM82 °FPartly sunny.9 mph79%29.98 "HgN/A
10:00 AM81 °FMostly cloudy.6 mph79%29.98 "HgN/A
9:00 AM79 °FPartly sunny.7 mph84%29.98 "HgN/A
8:00 AM77 °FMostly cloudy.7 mph89%29.98 "HgN/A
Weather by CustomWeather, © 2014

See weather overviewHow to use our weather pages